[[{"header":{"parameterUnit":"m.s-1","parameterCategory":1,"la1":30.2991,"la2":30.254,"lo1":-89.0895,"lo2":-89.0444,"dy":0.0017,"dx":0.0017,"nx":28,"ny":28,"refTime":"2024-06-21T09:00:00:Z","depth":0,"parameterNumber":2,"parameterNumberName":"U-component_of_WINDS"},"data":[0,0,0,0,0,0,0,0,0,0,0,0,0,0,0,0,0,0,0,0,0,0,0,0,0,0,0,0,0,0,0,0,0,0,0,0,0,0,0,0,0,0,0,0,0,0,0,0,0,0,0,0,0,0,0,0,0,0,-2.8112,-2.8111,0,-2.801,-2.8009,-2.8008,-2.7897,-2.7896,-2.7894,-2.7893,-2.7788,-2.7787,-2.7786,0,0,0,0,0,0,0,0,0,0,0,0,0,-2.8214,-2.8212,-2.8112,-2.8111,-2.8109,-2.801,-2.8009,-2.8007,-2.7897,-2.7896,-2.7894,-2.7892,-2.7789,-2.7787,-2.7786,0,0,0,0,0,0,0,0,0,0,0,0,0,-2.8146,-2.8212,-2.8112,-2.8043,-2.8035,-2.801,-2.8009,-2.8007,-2.7898,-2.7895,-2.7893,-2.7891,-2.7789,-2.7788,-2.7786,-2.7821,0,0,-2.778,-2.7779,0,0,0,0,0,0,0,0,-2.815,-2.8143,-2.8054,-2.8047,-2.8039,-2.7964,-2.8006,-2.7945,-2.7898,-2.795,-2.7892,-2.789,-2.7849,-2.7842,-2.7828,-2.7816,-2.7812,-2.7779,-2.7778,-2.7777,-2.7777,0,0,0,0,0,0,0,-2.8155,-2.8147,-2.8072,-2.8053,-2.8044,-2.8017,-2.8005,-2.7994,-2.7914,-2.7945,-2.7937,-2.7927,-2.7844,-2.783,-2.7825,-2.781,-2.778,-2.7778,-2.7777,-2.7776,-2.7825,-2.7828,0,0,0,0,0,0,-2.817,-2.8151,-2.8075,-2.8069,-2.809,-2.8017,-2.8004,-2.799,-2.7914,-2.79,-2.7929,-2.7922,-2.7835,-2.7827,-2.7821,-2.7859,-2.7778,-2.7776,-2.7775,-2.7823,-2.7826,-2.7829,0,0,0,0,0,0,-2.8173,-2.8164,-2.8079,-2.8108,-2.8095,-2.8018,-2.8004,-2.799,-2.7975,-2.7901,-2.7886,-2.7929,-2.7832,-2.7823,-2.7822,-2.7853,-2.7775,-2.7773,-2.782,-2.7824,-2.7827,-2.7935,0,0,0,0,0,0,-2.8176,-2.8166,-2.8178,-2.8109,-2.8094,-2.8082,-2.8006,-2.7989,-2.7972,-2.7962,-2.7897,-2.7884,-2.783,-2.7826,-2.7821,-2.7849,-2.7772,-2.7817,-2.7822,-2.7826,-2.7928,-2.7942,-2.7953,0,0,0,0,0,-2.818,-2.8212,-2.8179,-2.8171,-2.8107,-2.8084,-2.8075,-2.8012,-2.7975,-2.7987,-2.794,-2.7886,-2.7851,-2.7827,-2.782,-2.7849,-2.7815,-2.782,-2.7826,-2.7922,-2.7939,-2.7953,0,0,0,0,0,0,-2.8286,-2.8201,-2.8164,-2.8174,-2.8137,-2.8065,-2.8078,-2.8031,-2.8004,-2.7996,-2.7918,-2.7905,-2.7913,-2.788,-2.7855,-2.788,-2.7825,-2.783,-2.7901,-2.7916,-2.7929,-2.7937,-2.777,0,0,0,0,0,-2.8311,-2.8299,-2.8225,-2.8242,-2.8225,-2.8156,-2.8143,-2.8098,-2.8056,-2.804,-2.7992,-2.7955,-2.7935,-2.7924,-2.7901,-2.7923,-2.7908,-2.7939,-2.7952,-2.7963,-2.7968,-2.7979,-2.7992,-2.7847,-2.7847,-2.7847,0,0,-2.8361,-2.8314,-2.8311,-2.8262,-2.8228,-2.8218,-2.8143,-2.8135,-2.8128,-2.8039,-2.8035,-2.8,-2.7952,-2.7964,-2.7966,-2.7937,-2.8005,-2.797,-2.7979,-2.7978,-2.7986,-2.8,-2.8012,-2.7851,-2.785,-2.7849,0,0,-2.8449,-2.8411,-2.8421,-2.8389,-2.8339,-2.8293,-2.8296,-2.8232,-2.8205,-2.82,-2.8134,-2.8124,-2.8092,-2.8061,-2.8042,-2.8121,-2.8072,-2.8116,-2.8182,-2.8194,-2.8206,-2.8215,-2.8245,-2.8257,-2.8121,-2.8122,-2.8122,0,-2.8518,-2.85,-2.8432,-2.843,-2.8411,-2.8331,-2.8342,-2.8314,-2.8259,-2.8249,-2.8216,-2.8176,-2.8138,-2.8142,-2.8162,-2.8148,-2.815,-2.8123,-2.8209,-2.8218,-2.8227,-2.8254,-2.8266,-2.8127,-2.8127,-2.8126,-2.8126,0,-2.8589,-2.8578,-2.8592,-2.8543,-2.8525,-2.853,-2.8463,-2.8454,-2.8411,-2.8369,-2.8367,-2.832,-2.8287,-2.8285,-2.8242,-2.8284,-2.8267,-2.8224,-2.8167,-2.8248,-2.8272,-2.8282,-2.8136,-2.8134,-2.8132,-2.8131,0,0,-2.8739,-2.8653,-2.866,-2.8637,-2.8577,-2.8568,-2.8569,-2.8538,-2.8533,-2.8499,-2.8499,-2.8475,-2.8434,-2.8413,-2.8366,-2.8376,-2.8445,-2.8331,-2.8329,-2.8355,-2.849,-2.8524,-2.8537,-2.8412,-2.8413,-2.8415,-2.8494,0,-2.8816,-2.8814,-2.8754,-2.8768,-2.8758,-2.8684,-2.8685,-2.8649,-2.8611,-2.8597,-2.8554,-2.8539,-2.8486,-2.8473,-2.848,-2.8435,-2.8471,-2.8428,-2.8412,-2.8412,-2.8427,-2.855,-2.8585,-2.8663,-2.8503,-2.8505,-2.8506,0,-2.8906,-2.8878,-2.8892,-2.8834,-2.8828,-2.883,-2.8798,-2.8786,-2.8745,-2.8716,-2.8694,-2.8641,-2.864,-2.8587,-2.8585,-2.8557,-2.8547,-2.8525,-2.8526,-2.8522,-2.8465,-2.8551,-2.8685,-2.8698,-2.852,-2.8519,-2.8518,0,-2.9016,-2.8982,-2.8986,-2.8969,-2.8901,-2.8905,-2.8877,-2.8833,-2.882,-2.8792,-2.8782,-2.8755,-2.8741,-2.8721,-2.8664,-2.863,-2.8669,-2.8611,-2.8646,-2.8648,-2.8658,-2.8658,-2.8794,-2.8651,-2.865,-2.865,-2.865,0,-2.911,-2.9121,-2.9035,-2.9038,-2.905,-2.8982,-2.8996,-2.896,-2.8923,-2.8918,-2.8852,-2.8849,-2.8773,-2.8762,-2.8717,-2.8724,-2.8717,-2.8695,-2.8683,-2.8701,-2.8705,-2.8694,-2.8688,-2.8653,-2.8653,-2.8652,-2.8651,0,-2.9234,-2.9177,-2.9177,-2.9113,-2.9098,-2.911,-2.9055,-2.9056,-2.9014,-2.901,-2.9005,-2.8939,-2.8923,-2.8864,-2.8834,-2.8804,-2.8825,-2.8801,-2.8839,-2.8832,-2.8871,-2.8869,-2.9006,-2.9021,-2.8868,-2.8869,-2.887,0,-2.9298,-2.9305,-2.9243,-2.9236,-2.9211,-2.9199,-2.9185,-2.9119,-2.9107,-2.9063,-2.9069,-2.9048,-2.9028,-2.9007,-2.8957,-2.8934,-2.891,-2.8959,-2.8906,-2.8925,-2.8912,-2.8913,-2.8914,-2.8971,-2.8973,-2.8975,-2.8976,0,-2.9418,-2.939,-2.9371,-2.9345,-2.933,-2.9306,-2.9278,-2.9275,-2.9202,-2.9193,-2.9176,-2.9161,-2.9131,-2.9111,-2.9081,-2.9052,-2.9003,-2.8994,-2.9001,-2.902,-2.9042,-2.9032,-2.8872,-2.8991,-2.8989,-2.8988,-2.8987,-2.8987,-2.9514,-2.9518,-2.9476,-2.9459,-2.9431,-2.9407,-2.9405,-2.9364,-2.9349,-2.932,-2.9282,-2.9271,-2.9231,-2.9185,-2.9161,-2.9152,-2.9124,-2.9135,-2.9137,-2.9141,-2.9151,-2.9044,-2.9146,-2.9146,-2.9145,-2.9145,-2.9144,0,-2.9632,-2.9601,-2.9587,-2.955,-2.9537,-2.9492,-2.9459,-2.9452,-2.9443,-2.941,-2.9393,-2.9375,-2.9357,-2.9306,-2.9283,-2.9286,-2.9263,-2.9282,-2.9282,-2.9277,-2.9176,-2.9173,-2.9302,-2.9302,-2.9302,-2.9302,-2.9302,-2.9302,-2.9691,-2.9697,-2.9664,-2.9656,-2.9625,-2.9614,-2.96,-2.9578,-2.9552,-2.9535,-2.952,-2.9487,-2.9448,-2.9422,-2.9404,-2.939,-2.9385,-2.9412,-2.9391,-2.9298,-2.9283,-2.9269,-2.9266,-2.9412,-2.9412,-2.9492,-2.9493,-2.9493]},{"header":{"parameterUnit":"m.s-1","parameterCategory":1,"la1":30.2991,"la2":30.254,"lo1":-89.0895,"lo2":-89.0444,"dy":0.0017,"dx":0.0017,"nx":28,"ny":28,"refTime":"2024-06-21T09:00:00:Z","depth":0,"parameterNumber":3,"parameterNumberName":"V-component_of_WINDS"},"data":[0,0,0,0,0,0,0,0,0,0,0,0,0,0,0,0,0,0,0,0,0,0,0,0,0,0,0,0,0,0,0,0,0,0,0,0,0,0,0,0,0,0,0,0,0,0,0,0,0,0,0,0,0,0,0,0,0,0,2.9851,2.9851,0,2.9848,2.9848,2.9848,2.9898,2.99,2.9901,2.9902,2.9891,2.989,2.9888,0,0,0,0,0,0,0,0,0,0,0,0,0,2.9895,2.9894,2.9851,2.9851,2.9851,2.9848,2.9848,2.9848,2.9898,2.99,2.9901,2.9903,2.9892,2.989,2.9888,0,0,0,0,0,0,0,0,0,0,0,0,0,2.9882,2.9893,2.9851,2.9876,2.9878,2.9848,2.9848,2.9848,2.9898,2.99,2.9902,2.9904,2.9892,2.989,2.9888,2.9832,0,0,2.988,2.9879,0,0,0,0,0,0,0,0,2.9882,2.988,2.9872,2.9874,2.9877,2.9876,2.9859,2.9842,2.9897,2.989,2.9902,2.9905,2.9884,2.9882,2.9877,2.9831,2.9831,2.988,2.9879,2.9878,2.9877,0,0,0,0,0,0,0,2.9883,2.9881,2.985,2.9872,2.9875,2.9885,2.9886,2.9856,2.9875,2.9891,2.9894,2.9894,2.9885,2.9879,2.9877,2.983,2.988,2.9878,2.9877,2.9876,2.9738,2.9736,0,0,0,0,0,0,2.9882,2.9881,2.985,2.985,2.9885,2.9883,2.9883,2.9874,2.9876,2.9878,2.9892,2.9896,2.9882,2.988,2.9877,2.981,2.9878,2.9876,2.9874,2.974,2.9738,2.9735,0,0,0,0,0,0,2.9883,2.9879,2.985,2.9866,2.9864,2.988,2.9869,2.9873,2.9866,2.9877,2.988,2.9882,2.9884,2.988,2.9843,2.9811,2.9874,2.9872,2.9743,2.9739,2.9736,2.9677,0,0,0,0,0,0,2.9884,2.9879,2.9858,2.9866,2.9863,2.9818,2.9867,2.9871,2.9863,2.9868,2.9868,2.987,2.9885,2.9846,2.9841,2.9809,2.987,2.9746,2.9741,2.9737,2.9682,2.9672,2.9664,0,0,0,0,0,2.9885,2.984,2.9857,2.9853,2.9838,2.9816,2.9814,2.9834,2.986,2.9839,2.9846,2.987,2.9816,2.9842,2.9836,2.9803,2.9748,2.9743,2.9738,2.9686,2.9674,2.9664,0,0,0,0,0,0,2.9826,2.9842,2.986,2.9817,2.9815,2.9824,2.9798,2.982,2.9808,2.9814,2.9837,2.9837,2.9795,2.9796,2.9824,2.9749,2.9786,2.978,2.9749,2.9738,2.9729,2.9728,2.9869,0,0,0,0,0,2.9808,2.9791,2.9805,2.9765,2.9764,2.9781,2.9772,2.9788,2.9786,2.9784,2.9788,2.9783,2.9765,2.9752,2.9736,2.9684,2.9683,2.9658,2.9649,2.9642,2.9634,2.9606,2.9595,2.9719,2.9719,2.9719,0,0,2.977,2.9777,2.9764,2.9754,2.9754,2.9733,2.978,2.9756,2.974,2.978,2.9745,2.9748,2.9744,2.9699,2.9679,2.9698,2.9601,2.9635,2.9629,2.9626,2.96,2.9588,2.9577,2.9715,2.9716,2.9716,0,0,2.9691,2.9695,2.9663,2.9663,2.9664,2.9676,2.9668,2.9675,2.9679,2.9646,2.9675,2.9656,2.9625,2.962,2.9614,2.9536,2.9556,2.953,2.9481,2.9453,2.9443,2.9434,2.9404,2.9394,2.9523,2.9523,2.9523,0,2.9643,2.9615,2.9642,2.9617,2.9611,2.965,2.9616,2.9614,2.9608,2.9602,2.9625,2.9587,2.9586,2.954,2.9522,2.9516,2.9506,2.9528,2.9443,2.9434,2.9427,2.9398,2.9387,2.952,2.952,2.9521,2.9521,0,2.9555,2.9536,2.9509,2.9505,2.9497,2.9467,2.9488,2.9476,2.9493,2.9503,2.9468,2.947,2.9455,2.9446,2.9462,2.9402,2.9414,2.9439,2.9477,2.9411,2.9384,2.9374,2.9515,2.9516,2.9517,2.9518,0,0,2.9434,2.9449,2.9438,2.9437,2.9443,2.9427,2.9399,2.9387,2.9375,2.9371,2.9346,2.932,2.9345,2.9337,2.9353,2.9329,2.9265,2.9358,2.9358,2.9338,2.9198,2.9176,2.9163,2.9281,2.9279,2.9278,2.9197,0,2.9355,2.931,2.9335,2.9285,2.9266,2.9304,2.928,2.9279,2.9288,2.9272,2.9282,2.9262,2.9296,2.9292,2.9271,2.9278,2.9237,2.9284,2.9255,2.9254,2.9252,2.915,2.9127,2.9051,2.9187,2.9186,2.9184,0,2.9256,2.925,2.9199,2.9209,2.9202,2.918,2.9171,2.9156,2.9156,2.9165,2.9158,2.9181,2.9152,2.9193,2.9152,2.9184,2.9174,2.9176,2.9174,2.9169,2.9213,2.9139,2.9027,2.9014,2.9169,2.917,2.9171,0,2.917,2.915,2.9117,2.9115,2.9126,2.9109,2.9112,2.9115,2.9107,2.9099,2.9093,2.9082,2.9074,2.9064,2.9081,2.911,2.9038,2.908,2.9041,2.904,2.9021,2.9021,2.8902,2.902,2.902,2.902,2.9021,0,2.9077,2.9043,2.9078,2.9057,2.9021,2.905,2.9012,2.902,2.9022,2.9002,2.9035,2.9015,2.9042,2.9024,2.9038,2.9001,2.8998,2.9002,2.9005,2.8997,2.8996,2.8988,2.8992,2.9017,2.9018,2.9019,2.9019,0,2.8973,2.8995,2.8961,2.8976,2.8979,2.8951,2.8963,2.8943,2.8956,2.893,2.8926,2.8944,2.8925,2.8944,2.8925,2.8934,2.8885,2.8897,2.8885,2.8887,2.8846,2.8849,2.8715,2.8699,2.883,2.8828,2.8827,0,2.891,2.8886,2.8899,2.889,2.8892,2.8875,2.8868,2.8896,2.8886,2.8886,2.8866,2.8851,2.8839,2.8806,2.8817,2.8802,2.8813,2.8768,2.8811,2.8803,2.8809,2.8809,2.8806,2.8757,2.8756,2.8754,2.8753,0,2.8796,2.881,2.8799,2.8792,2.8783,2.8778,2.8775,2.8765,2.8794,2.8782,2.8764,2.8756,2.8738,2.8721,2.8711,2.8712,2.8736,2.8741,2.873,2.872,2.8713,2.8714,2.8858,2.8742,2.8743,2.8744,2.8745,2.8745,2.8709,2.869,2.8696,2.8683,2.8685,2.8683,2.8665,2.8677,2.8664,2.8653,2.8671,2.8648,2.865,2.8639,2.8638,2.8619,2.8638,2.8623,2.8619,2.8614,2.8607,2.8719,2.8617,2.8618,2.8618,2.8618,2.8619,0,2.8595,2.8602,2.859,2.8587,2.8577,2.8606,2.8605,2.8593,2.8574,2.8574,2.8564,2.8543,2.8528,2.8538,2.8525,2.8508,2.8518,2.8503,2.8503,2.8502,2.8592,2.8601,2.8495,2.8495,2.8495,2.8495,2.8495,2.8495,2.8534,2.8502,2.8516,2.8485,2.8492,2.8472,2.8469,2.8466,2.8467,2.8443,2.8432,2.844,2.8445,2.8432,2.8419,2.8422,2.8414,2.8394,2.8401,2.8484,2.8496,2.8507,2.8516,2.8393,2.8393,2.8312,2.8311,2.8311]}]]